| time (UTC) | temp F | wind direction | speed MPH | gust MPH | rain 1hr in | rain 24hr in | rain mn in | humidity % | barometer mb |
| 20260503231817 | 60 | 272 | 3.0 | 8.0 | 0.00 | 0.00 | 0.00 | 31 | 1012.2 |
| 20260503231328 | 60 | 261 | 3.0 | 8.0 | 0.00 | 0.00 | 0.00 | 30 | 1012.1 |
| 20260503230840 | 60 | 302 | 4.0 | 8.0 | 0.00 | 0.00 | 0.00 | 31 | 1012.1 |
| 20260503230315 | 60 | 309 | 4.0 | 10.0 | 0.00 | 0.00 | 0.00 | 30 | 1012.0 |
| 20260503225826 | 60 | 295 | 4.0 | 12.0 | 0.00 | 0.00 | 0.00 | 30 | 1011.9 |
| 20260503225318 | 60 | 275 | 3.0 | 11.0 | 0.00 | 0.00 | 0.00 | 30 | 1011.8 |
| 20260503224829 | 61 | 285 | 5.0 | 14.0 | 0.00 | 0.00 | 0.00 | 30 | 1011.8 |
| 20260503224321 | 61 | 5 | 2.0 | 14.0 | 0.00 | 0.00 | 0.00 | 30 | 1011.8 |
| 20260503223833 | 61 | 313 | 4.0 | 16.0 | 0.00 | 0.00 | 0.00 | 29 | 1011.8 |
| 20260503223326 | 61 | 301 | 6.0 | 16.0 | 0.00 | 0.00 | 0.00 | 28 | 1011.8 |
| 20260503222818 | 61 | 294 | 4.0 | 16.0 | 0.00 | 0.00 | 0.00 | 28 | 1011.8 |
| 20260503222351 | 62 | 314 | 4.0 | 11.0 | 0.00 | 0.00 | 0.00 | 29 | 1011.7 |
| 20260503221825 | 61 | 288 | 5.0 | 11.0 | 0.00 | 0.00 | 0.00 | 29 | 1011.7 |
| 20260503221324 | 61 | 345 | 5.0 | 11.0 | 0.00 | 0.00 | 0.00 | 29 | 1011.6 |
| 20260503220815 | 61 | 307 | 5.0 | 19.0 | 0.00 | 0.00 | 0.00 | 30 | 1011.7 |
| 20260503220327 | 61 | 259 | 3.0 | 19.0 | 0.00 | 0.00 | 0.00 | 29 | 1011.8 |
| 20260503215839 | 61 | 271 | 7.0 | 18.0 | 0.00 | 0.00 | 0.00 | 28 | 1011.7 |
| 20260503215333 | 62 | 277 | 8.0 | 19.0 | 0.00 | 0.00 | 0.00 | 28 | 1011.7 |
| 20260503214845 | 62 | 302 | 9.0 | 19.0 | 0.00 | 0.00 | 0.00 | 28 | 1011.6 |
| 20260503214316 | 62 | 313 | 7.0 | 16.0 | 0.00 | 0.00 | 0.00 | 29 | 1011.6 |
| 20260503213827 | 62 | 306 | 6.0 | 12.0 | 0.00 | 0.00 | 0.00 | 29 | 1011.6 |
| 20260503213339 | 62 | 327 | 5.0 | 14.0 | 0.00 | 0.00 | 0.00 | 29 | 1011.7 |
| 20260503212829 | 62 | 5 | 7.0 | 14.0 | 0.00 | 0.00 | 0.00 | 29 | 1011.5 |
| 20260503212325 | 62 | 254 | 5.0 | 13.0 | 0.00 | 0.00 | 0.00 | 29 | 1011.5 |
| 20260503211817 | 62 | 305 | 7.0 | 13.0 | 0.00 | 0.00 | 0.00 | 29 | 1011.6 |
| 20260503210826 | 63 | 325 | 7.0 | 18.0 | 0.00 | 0.00 | 0.00 | 30 | 1011.6 |
| 20260503210318 | 62 | 347 | 4.0 | 19.0 | 0.00 | 0.00 | 0.00 | 29 | 1011.4 |
| 20260503205830 | 63 | 310 | 6.0 | 18.0 | 0.00 | 0.00 | 0.00 | 29 | 1011.4 |
| 20260503205321 | 63 | 296 | 4.0 | 11.0 | 0.00 | 0.00 | 0.00 | 29 | 1011.4 |
| 20260503204834 | 62 | 355 | 5.0 | 16.0 | 0.00 | 0.00 | 0.00 | 29 | 1011.4 |
| 20260503204330 | 62 | 328 | 5.0 | 16.0 | 0.00 | 0.00 | 0.00 | 29 | 1011.5 |
| 20260503203820 | 62 | 323 | 7.0 | 15.0 | 0.00 | 0.00 | 0.00 | 29 | 1011.4 |
| 20260503203333 | 62 | 285 | 5.0 | 16.0 | 0.00 | 0.00 | 0.00 | 30 | 1011.4 |
| 20260503202823 | 62 | 348 | 6.0 | 16.0 | 0.00 | 0.00 | 0.00 | 29 | 1011.3 |
| 20260503202315 | 62 | 292 | 5.0 | 14.0 | 0.00 | 0.00 | 0.00 | 30 | 1011.4 |
| 20260503201826 | 62 | 253 | 2.0 | 17.0 | 0.00 | 0.00 | 0.00 | 30 | 1011.4 |
| 20260503201317 | 62 | 290 | 7.0 | 17.0 | 0.00 | 0.00 | 0.00 | 30 | 1011.6 |
| 20260503200851 | 62 | 288 | 5.0 | 17.0 | 0.00 | 0.00 | 0.00 | 31 | 1011.6 |
| 20260503200322 | 62 | 263 | 6.0 | 18.0 | 0.00 | 0.00 | 0.00 | 30 | 1011.6 |
| 20260503195818 | 62 | 319 | 5.0 | 17.0 | 0.00 | 0.00 | 0.00 | 30 | 1011.6 |
| 20260503195329 | 63 | 348 | 4.0 | 17.0 | 0.00 | 0.00 | 0.00 | 31 | 1011.7 |
| 20260503194820 | 63 | 294 | 6.0 | 17.0 | 0.00 | 0.00 | 0.00 | 30 | 1011.7 |
| 20260503194332 | 63 | 58 | 5.0 | 17.0 | 0.00 | 0.00 | 0.00 | 33 | 1011.8 |
| 20260503193823 | 62 | 289 | 6.0 | 17.0 | 0.00 | 0.00 | 0.00 | 31 | 1011.8 |
| 20260503193315 | 62 | 303 | 4.0 | 15.0 | 0.00 | 0.00 | 0.00 | 31 | 1011.8 |
| 20260503192826 | 61 | 257 | 7.0 | 15.0 | 0.00 | 0.00 | 0.00 | 33 | 1011.9 |
| 20260503192317 | 61 | 284 | 5.0 | 21.0 | 0.00 | 0.00 | 0.00 | 32 | 1012.0 |
| 20260503191849 | 61 | 327 | 9.0 | 21.0 | 0.00 | 0.00 | 0.00 | 32 | 1012.0 |
| 20260503191324 | 62 | 269 | 10.0 | 20.0 | 0.00 | 0.00 | 0.00 | 31 | 1012.0 |
| 20260503190819 | 63 | 305 | 4.0 | 14.0 | 0.00 | 0.00 | 0.00 | 33 | 1012.1 |
| 20260503190330 | 61 | 281 | 5.0 | 18.0 | 0.00 | 0.00 | 0.00 | 33 | 1012.1 |
| 20260503185821 | 62 | 290 | 6.0 | 17.0 | 0.00 | 0.00 | 0.00 | 31 | 1012.1 |
| 20260503185333 | 62 | 287 | 6.0 | 17.0 | 0.00 | 0.00 | 0.00 | 32 | 1012.2 |
| 20260503184825 | 62 | 303 | 5.0 | 13.0 | 0.00 | 0.00 | 0.00 | 32 | 1012.2 |
| 20260503184316 | 61 | 298 | 3.0 | 11.0 | 0.00 | 0.00 | 0.00 | 34 | 1012.2 |
| 20260503183827 | 60 | 339 | 4.0 | 14.0 | 0.00 | 0.00 | 0.00 | 33 | 1012.2 |
| 20260503183322 | 61 | 296 | 7.0 | 14.0 | 0.00 | 0.00 | 0.00 | 32 | 1012.4 |
| 20260503182834 | 60 | 291 | 4.0 | 13.0 | 0.00 | 0.00 | 0.00 | 35 | 1012.3 |
| 20260503182326 | 60 | 299 | 5.0 | 13.0 | 0.00 | 0.00 | 0.00 | 34 | 1012.4 |
| 20260503181816 | 59 | 70 | 5.0 | 15.0 | 0.00 | 0.00 | 0.00 | 36 | 1012.3 |
| 20260503181328 | 58 | 296 | 3.0 | 15.0 | 0.00 | 0.00 | 0.00 | 35 | 1012.4 |
| 20260503180312 | 59 | 327 | 5.0 | 14.0 | 0.00 | 0.00 | 0.00 | 34 | 1012.4 |
| 20260503175826 | 60 | 304 | 4.0 | 15.0 | 0.00 | 0.00 | 0.00 | 35 | 1012.3 |
| 20260503175322 | 59 | 315 | 4.0 | 19.0 | 0.00 | 0.00 | 0.00 | 34 | 1012.4 |
| 20260503174812 | 58 | 252 | 7.0 | 19.0 | 0.00 | 0.00 | 0.00 | 35 | 1012.5 |
| 20260503174327 | 58 | 302 | 4.0 | 16.0 | 0.00 | 0.00 | 0.00 | 36 | 1012.5 |
| 20260503173819 | 58 | 344 | 5.0 | 18.0 | 0.00 | 0.00 | 0.00 | 36 | 1012.6 |
| 20260503173331 | 58 | 40 | 4.0 | 15.0 | 0.00 | 0.00 | 0.00 | 36 | 1012.5 |
| 20260503172845 | 58 | 308 | 6.0 | 18.0 | 0.00 | 0.00 | 0.00 | 34 | 1012.5 |
| 20260503172314 | 59 | 343 | 8.0 | 18.0 | 0.00 | 0.00 | 0.00 | 34 | 1012.5 |
| 20260503171826 | 59 | 351 | 7.0 | 17.0 | 0.00 | 0.00 | 0.00 | 34 | 1012.4 |
| 20260503171321 | 58 | 350 | 7.0 | 17.0 | 0.00 | 0.00 | 0.00 | 36 | 1012.4 |
| 20260503170833 | 57 | 312 | 3.0 | 16.0 | 0.00 | 0.00 | 0.00 | 40 | 1012.5 |
| 20260503170345 | 57 | 269 | 7.0 | 16.0 | 0.00 | 0.00 | 0.00 | 37 | 1012.4 |
| 20260503150821 | 56 | 349 | 8.0 | 21.0 | 0.00 | 0.00 | 0.00 | 39 | 1012.9 |
| 20260503150315 | 56 | 317 | 8.0 | 21.0 | 0.00 | 0.00 | 0.00 | 40 | 1012.9 |
| 20260503131324 | 51 | 290 | 3.0 | 17.0 | 0.00 | 0.00 | 0.00 | 51 | 1012.8 |
| 20260503130815 | 51 | 281 | 6.0 | 13.0 | 0.00 | 0.00 | 0.00 | 51 | 1012.8 |
| 20260503130327 | 50 | 345 | 5.0 | 16.0 | 0.00 | 0.00 | 0.00 | 52 | 1012.8 |
| 20260503110812 | 47 | 340 | 3.0 | 8.0 | 0.00 | 0.00 | 0.00 | 56 | 1011.9 |
| 20260503110346 | 47 | 310 | 2.0 | 8.0 | 0.00 | 0.00 | 0.00 | 56 | 1011.9 |
| 20260503090339 | 48 | 327 | 6.0 | 11.0 | 0.00 | 0.00 | 0.00 | 52 | 1010.2 |
| 20260503081343 | 49 | 337 | 2.0 | 8.0 | 0.00 | 0.00 | 0.00 | 52 | 1010.2 |
| 20260503080818 | 49 | 333 | 3.0 | 10.0 | 0.00 | 0.00 | 0.00 | 52 | 1010.1 |
| 20260503080349 | 49 | 350 | 3.0 | 10.0 | 0.00 | 0.00 | 0.00 | 52 | 1010.1 |
| 20260503072815 | 50 | 315 | 3.0 | 11.0 | 0.00 | 0.00 | 0.00 | 50 | 1010.1 |
| 20260503071826 | 50 | 342 | 4.0 | 8.0 | 0.00 | 0.00 | 0.00 | 51 | 1010.2 |
| 20260503071316 | 50 | 340 | 4.0 | 8.0 | 0.00 | 0.00 | 0.00 | 51 | 1010.2 |
| 20260503070828 | 50 | 327 | 3.0 | 8.0 | 0.00 | 0.00 | 0.00 | 51 | 1010.2 |
| 20260503070319 | 50 | 337 | 3.0 | 7.0 | 0.00 | 0.00 | 0.00 | 51 | 1010.2 |
| 20260503054825 | 51 | 333 | 3.0 | 9.0 | 0.00 | 0.00 | 0.00 | 52 | 1010.4 |
| 20260503054316 | 51 | 333 | 4.0 | 9.0 | 0.00 | 0.00 | 0.00 | 52 | 1010.5 |
| 20260503053829 | 51 | 318 | 2.0 | 8.0 | 0.00 | 0.00 | 0.00 | 53 | 1010.5 |
| 20260503053320 | 51 | 332 | 3.0 | 8.0 | 0.00 | 0.00 | 0.00 | 52 | 1010.4 |
| 20260503052831 | 51 | 327 | 3.0 | 8.0 | 0.00 | 0.00 | 0.00 | 53 | 1010.4 |
| 20260503052323 | 51 | 347 | 3.0 | 7.0 | 0.00 | 0.00 | 0.00 | 53 | 1010.3 |
| 20260503051814 | 51 | 355 | 3.0 | 6.0 | 0.00 | 0.00 | 0.00 | 54 | 1010.5 |
| 20260503051330 | 51 | 350 | 2.0 | 8.0 | 0.00 | 0.00 | 0.00 | 54 | 1010.5 |
| 20260503050825 | 51 | 346 | 3.0 | 8.0 | 0.00 | 0.00 | 0.00 | 54 | 1010.4 |
| 20260503050319 | 51 | 323 | 4.0 | 9.0 | 0.00 | 0.00 | 0.00 | 54 | 1010.5 |
| 20260503045832 | 51 | 315 | 3.0 | 9.0 | 0.00 | 0.00 | 0.00 | 55 | 1010.5 |
| 20260503045324 | 51 | 334 | 2.0 | 8.0 | 0.00 | 0.00 | 0.00 | 56 | 1010.7 |
| 20260503044816 | 51 | 336 | 4.0 | 8.0 | 0.00 | 0.00 | 0.00 | 56 | 1010.7 |
| 20260503044347 | 51 | 317 | 3.0 | 7.0 | 0.00 | 0.00 | 0.00 | 57 | 1010.9 |
| 20260503043818 | 51 | 325 | 1.0 | 7.0 | 0.00 | 0.00 | 0.00 | 57 | 1010.9 |
| 20260503043330 | 51 | 350 | 2.0 | 6.0 | 0.00 | 0.00 | 0.00 | 58 | 1011.0 |
| 20260503042825 | 51 | 335 | 1.0 | 8.0 | 0.00 | 0.00 | 0.00 | 58 | 1011.1 |
| 20260503042336 | 51 | 324 | 2.0 | 8.0 | 0.00 | 0.00 | 0.00 | 58 | 1011.1 |
| 20260503041827 | 51 | 332 | 2.0 | 6.0 | 0.00 | 0.00 | 0.00 | 59 | 1011.1 |
| 20260503041321 | 51 | 327 | 2.0 | 6.0 | 0.00 | 0.00 | 0.00 | 60 | 1011.1 |
| 20260503040853 | 51 | 329 | 1.0 | 4.0 | 0.00 | 0.00 | 0.00 | 61 | 1011.1 |
| 20260503040323 | 51 | 333 | 1.0 | 4.0 | 0.00 | 0.00 | 0.00 | 62 | 1011.0 |
| 20260503035854 | 51 | 324 | 2.0 | 6.0 | 0.00 | 0.00 | 0.00 | 63 | 1010.9 |
| 20260503035344 | 51 | 347 | 2.0 | 6.0 | 0.00 | 0.00 | 0.00 | 64 | 1010.8 |
| 20260503034814 | 51 | 348 | 3.0 | 4.0 | 0.00 | 0.00 | 0.00 | 65 | 1010.8 |
| 20260503034325 | 51 | 340 | 1.0 | 5.0 | 0.00 | 0.00 | 0.00 | 67 | 1011.0 |
| 20260503033821 | 51 | 333 | 1.0 | 5.0 | 0.00 | 0.00 | 0.00 | 67 | 1011.0 |
| 20260503033333 | 51 | 323 | 1.0 | 5.0 | 0.00 | 0.00 | 0.00 | 67 | 1011.0 |
| 20260503032824 | 51 | 327 | 2.0 | 7.0 | 0.00 | 0.00 | 0.00 | 67 | 1010.9 |
| 20260503032336 | 51 | 342 | 3.0 | 7.0 | 0.00 | 0.00 | 0.00 | 69 | 1011.0 |
| 20260503031826 | 51 | 322 | 3.0 | 6.0 | 0.00 | 0.00 | 0.00 | 71 | 1011.1 |
| 20260503031318 | 51 | 329 | 2.0 | 5.0 | 0.00 | 0.00 | 0.00 | 73 | 1011.0 |
| 20260503030830 | 52 | 313 | 1.0 | 3.0 | 0.00 | 0.00 | 0.00 | 74 | 1011.0 |
| 20260503030320 | 52 | 5 | 1.0 | 3.0 | 0.00 | 0.00 | 0.00 | 75 | 1011.0 |
| 20260503025815 | 52 | 332 | 0.0 | 5.0 | 0.00 | 0.00 | 0.00 | 75 | 1011.0 |
| 20260503024825 | 52 | 335 | 0.0 | 3.0 | 0.00 | 0.00 | 0.00 | 77 | 1010.9 |
| 20260503024315 | 52 | 339 | 2.0 | 5.0 | 0.00 | 0.00 | 0.00 | 78 | 1010.8 |
| 20260503023827 | 52 | 319 | 2.0 | 5.0 | 0.00 | 0.00 | 0.00 | 79 | 1010.8 |
| 20260503023319 | 52 | 333 | 1.0 | 4.0 | 0.00 | 0.00 | 0.00 | 79 | 1010.9 |
| 20260503022831 | 52 | 288 | 1.0 | 4.0 | 0.00 | 0.00 | 0.00 | 79 | 1011.0 |
| 20260503022342 | 52 | 286 | 1.0 | 3.0 | 0.00 | 0.00 | 0.00 | 79 | 1011.1 |
| 20260503021852 | 52 | 286 | 2.0 | 4.0 | 0.00 | 0.00 | 0.00 | 79 | 1011.2 |
| 20260503021323 | 52 | 253 | 3.0 | 5.0 | 0.00 | 0.00 | 0.00 | 78 | 1011.1 |
| 20260503020834 | 52 | 287 | 2.0 | 4.0 | 0.00 | 0.00 | 0.00 | 78 | 1011.0 |
| 20260503020330 | 52 | 283 | 3.0 | 4.0 | 0.00 | 0.00 | 0.00 | 78 | 1011.1 |
| 20260503015822 | 52 | 261 | 1.0 | 4.0 | 0.00 | 0.00 | 0.00 | 78 | 1010.9 |
| 20260503015334 | 52 | 252 | 2.0 | 5.0 | 0.00 | 0.00 | 0.00 | 78 | 1011.1 |
| 20260503014824 | 52 | 234 | 1.0 | 3.0 | 0.00 | 0.00 | 0.00 | 78 | 1011.1 |
| 20260503014316 | 52 | 265 | 2.0 | 4.0 | 0.00 | 0.00 | 0.00 | 77 | 1011.2 |
| 20260503013828 | 52 | 267 | 2.0 | 4.0 | 0.00 | 0.00 | 0.00 | 77 | 1011.2 |
| 20260503013322 | 52 | 277 | 2.0 | 5.0 | 0.00 | 0.00 | 0.00 | 77 | 1011.1 |
| 20260503012833 | 52 | 275 | 2.0 | 5.0 | 0.00 | 0.00 | 0.00 | 77 | 1011.1 |
| 20260503012328 | 53 | 239 | 2.0 | 4.0 | 0.00 | 0.00 | 0.00 | 76 | 1011.2 |
| 20260503011820 | 53 | 238 | 2.0 | 4.0 | 0.00 | 0.00 | 0.00 | 76 | 1011.1 |
| 20260503011331 | 53 | 246 | 2.0 | 4.0 | 0.00 | 0.00 | 0.00 | 76 | 1011.2 |
| 20260503010843 | 53 | 202 | 1.0 | 3.0 | 0.00 | 0.00 | 0.00 | 76 | 1011.1 |
| 20260503010314 | 53 | 228 | 1.0 | 3.0 | 0.00 | 0.00 | 0.00 | 75 | 1010.9 |
| 20260503005829 | 53 | 203 | 0.0 | 3.0 | 0.00 | 0.00 | 0.00 | 75 | 1010.9 |
| 20260503005341 | 53 | 188 | 1.0 | 3.0 | 0.00 | 0.00 | 0.00 | 75 | 1010.9 |
| 20260503004812 | 53 | 188 | 1.0 | 2.0 | 0.00 | 0.00 | 0.00 | 75 | 1010.8 |
| 20260503004326 | 54 | 200 | 0.0 | 1.0 | 0.00 | 0.00 | 0.00 | 74 | 1010.7 |
| 20260503003822 | 54 | 200 | 0.0 | 2.0 | 0.00 | 0.00 | 0.00 | 74 | 1010.7 |
| 20260503003314 | 54 | 200 | 0.0 | 2.0 | 0.00 | 0.00 | 0.00 | 74 | 1010.6 |
| 20260503002825 | 54 | 200 | 0.0 | 1.0 | 0.00 | 0.00 | 0.00 | 74 | 1010.6 |
| 20260503002338 | 54 | 200 | 0.0 | 2.0 | 0.00 | 0.00 | 0.00 | 73 | 1010.6 |
| 20260503001828 | 54 | 200 | 0.0 | 2.0 | 0.00 | 0.00 | 0.00 | 73 | 1010.6 |
| 20260503001323 | 54 | 200 | 1.0 | 3.0 | 0.00 | 0.00 | 0.00 | 73 | 1010.6 |
| 20260503000834 | 55 | 202 | 1.0 | 3.0 | 0.00 | 0.00 | 0.00 | 73 | 1010.7 |
| 20260503000326 | 55 | 192 | 1.0 | 3.0 | 0.00 | 0.00 | 0.00 | 72 | 1010.6 |
| 20260502235818 | 55 | 179 | 2.0 | 4.0 | 0.00 | 0.00 | 0.00 | 72 | 1010.6 |
| 20260502235333 | 55 | 185 | 2.0 | 4.0 | 0.00 | 0.00 | 0.00 | 71 | 1010.7 |
| 20260502234845 | 55 | 182 | 2.0 | 3.0 | 0.00 | 0.00 | 0.00 | 71 | 1010.7 |
| 20260502234315 | 55 | 188 | 1.0 | 2.0 | 0.00 | 0.00 | 0.00 | 70 | 1010.7 |
| 20260502233849 | 55 | 183 | 1.0 | 5.0 | 0.00 | 0.00 | 0.00 | 70 | 1010.8 |
| 20260502233319 | 56 | 191 | 2.0 | 5.0 | 0.00 | 0.00 | 0.00 | 69 | 1010.7 |
| 20260502232851 | 56 | 178 | 2.0 | 4.0 | 0.00 | 0.00 | 0.00 | 69 | 1010.7 |
| 20260502232322 | 56 | 190 | 2.0 | 4.0 | 0.00 | 0.00 | 0.00 | 69 | 1010.7 |